Other Public Products
Issued by NWS Charleston, SC

Current Version | Previous Version | Graphics & Text | Print | Product List | Glossary On
Versions: 1 2 3 4 5 6 7 8 9 10 11 12 13 14 15 16 17 18 19 20 21 22 23 24 25 26 27 28 29 30 31 32 33 34 35 36 37 38 39 40 41 42 43 44 45 46 47 48 49 50
473
FPUS82 KCHS 082212
OPUCHS

TEST...KCHS/KSAV Gateway Observations...TEST
National Weather Service Charleston SC
500 PM EST THU DEC 08 2016

NOTE: "fair" indicates few or no clouds below 12,000 feet with no
significant weather and/or obstructions to visibility.

SCZ050-WAZ558-NCZ071-TXZ119-213-PAZ071-DCZ001-FLZ074-172-MI076-
NYZ176-178-MAZ016-IL014-TNZ027-NJZ106-GAZ044-MD014-082300-
...Gateway Observations for Charleston International...

CITY           SKY/WX    TMP DP  RH WIND       PRES   REMARKS
Chas Airport   MOCLDY    61  46  57 N13       30.12R
Seattle        PTSUNNY   37  11  34 E18G26    29.96F WCI  27
Charlotte      CLOUDY    46  20  35 NW12      30.18R
Dallas DFW     CLOUDY    36  15  42 N14       30.60S WCI  27
Dallas Love    CLOUDY    36  15  42 N14G28    30.62R WCI  27
Philladelphia  MOCLDY    43  18  36 NW8       29.99R
Wash National  MOCLDY    45  14  28 NW15G23   30.07R
Baltimore      PTCLDY    42  15  33 W14G23    30.04R
Miami          CLOUDY    77  71  82 E5        30.06R
Detroit        LGT SNOW  27  20  75 W15       30.18R WCI  15
Newark         CLOUDY    41  18  39 W16       29.93R
Laguardia      CLOUDY    43  18  36 W21       29.91R
J F K          CLOUDY    43  16  33 W16G22    29.92R
Boston Logan   PTCLDY    40  27  59 W10       29.81R WCI  33
Ft. Lauderdale MOCLDY    77  73  87 NE8       30.05R
Chicago O`Hare CLOUDY    22  14  71 W18       30.34R WCI   7
Chicago Midway FLURRIES  22  13  68 W16G24    30.35R WCI   8
Houston Bush   CLOUDY    47  33  58 N22G28    30.42R
Houston Hobby  CLOUDY    49  34  56 N22G28    30.40R
Nashville      MOCLDY    37  15  40 NW10      30.42R WCI  30
Atlanta        CLOUDY    44  18  35 N15       30.28R

$$

GAZ044-118-TXZ119-213-NCZ071-DCZ001-MDZ014-506-PAZ021-071-NJZ106-
NYZ176-178-MAZ106-OHZ011-021-055-MIZ076-KYZ091-ILZ014-INZ047-
MNZ060-082300-
...Gateway Observations for Savannah International...

CITY           SKY/WX    TMP DP  RH WIND       PRES   REMARKS
Savannah Arpt  CLOUDY    61  40  45 NW12      30.16R
Atlanta        CLOUDY    44  18  35 N15       30.28R
Charlotte      CLOUDY    46  20  35 NW12      30.18R
Dallas DFW     CLOUDY    36  15  42 N14       30.60S WCI  27
Houston Bush   CLOUDY    47  33  58 N22G28    30.42R
Wash National  MOCLDY    45  14  28 NW15G23   30.07R
Wash Dulles    PTCLDY    41  15  35 NW16      30.07R
Baltimore      PTCLDY    42  15  33 W14G23    30.04R
Philadelphia   MOCLDY    43  18  36 NW8       29.99R
Newark         CLOUDY    41  18  39 W16       29.93R
Laguardia      CLOUDY    43  18  36 W21       29.91R
J F K          CLOUDY    43  16  33 W16G22    29.92R
Boston         PTCLDY    40  27  59 W10       29.81R WCI  33
Pittsburg      FLURRIES  28  16  60 W16       30.14R WCI  16
Akron          FLURRIES  24  14  65 W17G29    30.17R WCI  11
Cleveland      CLOUDY    27  15  61 W16G31    30.20R WCI  15
Cincinnati     PTCLDY    26  15  63 NW15      30.34R WCI  14
Columbus         N/A     25  14  64 W17G24    30.31R WCI  11
Detroit        LGT SNOW  27  20  75 W15       30.18R WCI  15
Chicago O`Hare CLOUDY    22  14  71 W18       30.34R WCI   7
Minneapolis    FLURRIES  22  11  62 NW17      30.44R WCI   8
Indianapolis   FLURRIES  23  13  65 W15       30.38R WCI  10

$$




USA.gov is the U.S. government's official web portal to all federal, state and local government web resources and services.